owner,sensor,date,latitude,longitude,vertical_datum,wind_speed,wind_to_direction,wind_speed_of_gust,qcFlag 
TABS,ioos:station:wmo:42044:1,2017-10-01T00:00:00Z,26.1914,-97.0507,0.0,6.612548677,60.75989313,7.92,'11111222,11111222,11111222' 
TABS,ioos:station:wmo:42044:1,2017-10-01T00:30:00Z,26.1914,-97.0507,0.0,6.452100433,65.26170946,7.81,'11111222,11111222,11111222' 
TABS,ioos:station:wmo:42044:1,2017-10-01T01:00:00Z,26.1914,-97.0507,0.0,6.399640615,63.55470651,7.65,'11111222,11111222,11111222' 
TABS,ioos:station:wmo:42044:1,2017-10-01T01:30:00Z,26.1914,-97.0507,0.0,5.919062426,59.882567,7.31,'11111222,11111222,11111222' 
TABS,ioos:station:wmo:42044:1,2017-10-01T02:00:00Z,26.1914,-97.0507,0.0,4.856439025,50.17899545,9.58,'11111222,11111222,11111222' 
TABS,ioos:station:wmo:42044:1,2017-10-01T02:30:00Z,26.1914,-97.0507,0.0,5.944282968,64.38296405,7.24,'11111222,11111222,11111222' 
TABS,ioos:station:wmo:42044:1,2017-10-01T03:00:00Z,26.1914,-97.0507,0.0,5.70611076,58.39872889,6.65,'11111222,11111222,11111222' 
TABS,ioos:station:wmo:42044:1,2017-10-01T03:30:00Z,26.1914,-97.0507,0.0,5.409038732,54.25265243,6.37,'11111222,11111222,11111222' 
TABS,ioos:station:wmo:42044:1,2017-10-01T04:00:00Z,26.1914,-97.0507,0.0,5.617632953,51.06907482,6.66,'11111222,11111222,11111222' 
TABS,ioos:station:wmo:42044:1,2017-10-01T04:30:00Z,26.1914,-97.0507,0.0,5.782058457,52.87212726,7.1,'11111222,11111222,11111222' 
TABS,ioos:station:wmo:42044:1,2017-10-01T05:00:00Z,26.1914,-97.0507,0.0,5.773612387,49.49525338,7.1,'11111222,11111222,11111222' 
TABS,ioos:station:wmo:42044:1,2017-10-01T05:30:00Z,26.1914,-97.0507,0.0,6.231380264,46.36515622,7.59,'11111222,11111222,11111222' 
TABS,ioos:station:wmo:42044:1,2017-10-01T06:00:00Z,26.1914,-97.0507,0.0,6.975743688,43.14084319,8.09,'11111222,11111222,11111222' 
TABS,ioos:station:wmo:42044:1,2017-10-01T06:30:00Z,26.1914,-97.0507,0.0,6.87786304,59.89312244,8.52,'11111222,11111222,11111222' 
TABS,ioos:station:wmo:42044:1,2017-10-01T07:00:00Z,26.1914,-97.0507,0.0,6.681990721,57.09441311,8.67,'11111222,11111222,11111222' 
TABS,ioos:station:wmo:42044:1,2017-10-01T07:30:00Z,26.1914,-97.0507,0.0,7.244004417,53.19304278,9.1,'11111222,11111222,11111222' 
TABS,ioos:station:wmo:42044:1,2017-10-01T08:00:00Z,26.1914,-97.0507,0.0,6.54269822,59.2010982,8.15,'11111222,11111222,11111222' 
TABS,ioos:station:wmo:42044:1,2017-10-01T08:30:00Z,26.1914,-97.0507,0.0,5.957021068,63.04746318,7.49,'11111222,11111222,11111222' 
TABS,ioos:station:wmo:42044:1,2017-10-01T09:00:00Z,26.1914,-97.0507,0.0,6.223768955,58.7359205,7.91,'11111222,11111222,11111222' 
TABS,ioos:station:wmo:42044:1,2017-10-01T09:30:00Z,26.1914,-97.0507,0.0,5.631092256,57.32556425,7.02,'11111222,11111222,11111222' 
TABS,ioos:station:wmo:42044:1,2017-10-01T10:00:00Z,26.1914,-97.0507,0.0,5.393403378,63.33957246,7.03,'11111222,11111222,11111222' 
TABS,ioos:station:wmo:42044:1,2017-10-01T10:30:00Z,26.1914,-97.0507,0.0,5.515360369,66.03714614,7.01,'11111222,11111222,11111222' 
TABS,ioos:station:wmo:42044:1,2017-10-01T11:00:00Z,26.1914,-97.0507,0.0,5.652229649,77.11896079,7.1,'11111222,11111222,11111222' 
TABS,ioos:station:wmo:42044:1,2017-10-01T11:30:00Z,26.1914,-97.0507,0.0,5.73687197,74.94596286,7.16,'11111222,11111222,11111222' 
TABS,ioos:station:wmo:42044:1,2017-10-01T12:00:00Z,26.1914,-97.0507,0.0,5.380009294,77.87509791,6.95,'11111222,11111222,11111222' 
TABS,ioos:station:wmo:42044:1,2017-10-01T12:30:00Z,26.1914,-97.0507,0.0,5.167223626,71.84518836,6.68,'11111222,11111222,11111222' 
TABS,ioos:station:wmo:42044:1,2017-10-01T13:00:00Z,26.1914,-97.0507,0.0,5.10397884,71.84866433,6.71,'11111222,11111222,11111222' 
TABS,ioos:station:wmo:42044:1,2017-10-01T13:30:00Z,26.1914,-97.0507,0.0,4.824738335,76.9426858,6.08,'11111222,11111222,11111222' 
TABS,ioos:station:wmo:42044:1,2017-10-01T14:00:00Z,26.1914,-97.0507,0.0,5.437223556,79.72303224,6.64,'11111222,11111222,11111222' 
TABS,ioos:station:wmo:42044:1,2017-10-01T14:30:00Z,26.1914,-97.0507,0.0,5.090088408,67.71745848,6.82,'11111222,11111222,11111222' 
TABS,ioos:station:wmo:42044:1,2017-10-01T15:00:00Z,26.1914,-97.0507,0.0,4.991392591,75.85200678,6.04,'11111222,11111222,11111222' 
TABS,ioos:station:wmo:42044:1,2017-10-01T15:30:00Z,26.1914,-97.0507,0.0,4.664118352,77.87053125,5.77,'11111222,11111222,11111222' 
TABS,ioos:station:wmo:42044:1,2017-10-01T16:00:00Z,26.1914,-97.0507,0.0,4.809750513,81.75156897,6.1,'11111222,11111222,11111222' 
TABS,ioos:station:wmo:42044:1,2017-10-01T16:30:00Z,26.1914,-97.0507,0.0,4.990110219,71.78252648,6.49,'11111222,11111222,11111222' 
TABS,ioos:station:wmo:42044:1,2017-10-01T17:00:00Z,26.1914,-97.0507,0.0,4.49944441,67.93811007,5.63,'11111222,11111222,11111222' 
TABS,ioos:station:wmo:42044:1,2017-10-01T17:30:00Z,26.1914,-97.0507,0.0,4.937944917,59.8517903,6.15,'11111222,11111222,11111222' 
TABS,ioos:station:wmo:42044:1,2017-10-01T18:00:00Z,26.1914,-97.0507,0.0,5.169535763,66.75738346,6.24,'11111222,11111222,11111222' 
TABS,ioos:station:wmo:42044:1,2017-10-01T18:30:00Z,26.1914,-97.0507,0.0,5.174263233,63.48411088,6.72,'11111222,11111222,11111222' 
TABS,ioos:station:wmo:42044:1,2017-10-01T19:00:00Z,26.1914,-97.0507,0.0,5.120790955,54.13681396,6.5,'11111222,11111222,11111222' 
TABS,ioos:station:wmo:42044:1,2017-10-01T19:30:00Z,26.1914,-97.0507,0.0,5.215524902,64.56463202,6.58,'11111222,11111222,11111222' 
TABS,ioos:station:wmo:42044:1,2017-10-01T20:00:00Z,26.1914,-97.0507,0.0,4.918638023,59.31557859,6.17,'11111222,11111222,11111222' 
TABS,ioos:station:wmo:42044:1,2017-10-01T20:30:00Z,26.1914,-97.0507,0.0,4.518152277,68.71629285,5.47,'11111222,11111222,11111222' 
TABS,ioos:station:wmo:42044:1,2017-10-01T21:00:00Z,26.1914,-97.0507,0.0,4.647967298,78.83472501,5.9,'11111222,11111222,11111222' 
TABS,ioos:station:wmo:42044:1,2017-10-01T21:30:00Z,26.1914,-97.0507,0.0,4.621536541,79.90544228,5.81,'11111222,11111222,11111222' 
TABS,ioos:station:wmo:42044:1,2017-10-01T22:00:00Z,26.1914,-97.0507,0.0,4.636291622,78.30189119,6.31,'11111222,11111222,11111222' 
TABS,ioos:station:wmo:42044:1,2017-10-01T22:30:00Z,26.1914,-97.0507,0.0,4.442082845,78.96792787,5.87,'11111222,11111222,11111222' 
TABS,ioos:station:wmo:42044:1,2017-10-01T23:00:00Z,26.1914,-97.0507,0.0,4.273289131,74.1094718,5.18,'11111222,11111222,11111222' 
TABS,ioos:station:wmo:42044:1,2017-10-01T23:30:00Z,26.1914,-97.0507,0.0,4.587373976,86.75047512,6.0,'11111222,11111222,11111222' 
TABS,ioos:station:wmo:42044:1,2017-10-02T00:00:00Z,26.1914,-97.0507,0.0,4.447077692,83.67363004,6.08,'11111222,11111222,11111222' 
TABS,ioos:station:wmo:42044:1,2017-10-02T00:30:00Z,26.1914,-97.0507,0.0,4.511341264,88.60240132,5.85,'11111222,11111222,11111222' 
TABS,ioos:station:wmo:42044:1,2017-10-02T01:00:00Z,26.1914,-97.0507,0.0,4.539471335,84.69089114,5.81,'11111222,11111222,11111222' 
TABS,ioos:station:wmo:42044:1,2017-10-02T01:30:00Z,26.1914,-97.0507,0.0,4.352953021,81.94395398,5.85,'11111222,11111222,11111222' 
TABS,ioos:station:wmo:42044:1,2017-10-02T02:00:00Z,26.1914,-97.0507,0.0,4.411723019,75.96336844,5.77,'11111222,11111222,11111222' 
TABS,ioos:station:wmo:42044:1,2017-10-02T02:30:00Z,26.1914,-97.0507,0.0,4.850257725,89.40892325,6.57,'11111222,11111222,11111222' 
TABS,ioos:station:wmo:42044:1,2017-10-02T03:00:00Z,26.1914,-97.0507,0.0,5.001199856,84.72218534,6.47,'11111222,11111222,11111222' 
TABS,ioos:station:wmo:42044:1,2017-10-02T03:30:00Z,26.1914,-97.0507,0.0,5.358553909,98.4782962,6.49,'11111222,11111222,11111222' 
TABS,ioos:station:wmo:42044:1,2017-10-02T04:00:00Z,26.1914,-97.0507,0.0,5.785810228,101.9706543,7.05,'11111222,11111222,11111222' 
TABS,ioos:station:wmo:42044:1,2017-10-02T04:30:00Z,26.1914,-97.0507,0.0,5.470831747,108.1041416,6.93,'11111222,11111222,11111222' 
TABS,ioos:station:wmo:42044:1,2017-10-02T05:00:00Z,26.1914,-97.0507,0.0,5.72703239,108.846608,6.88,'11111222,11111222,11111222' 
TABS,ioos:station:wmo:42044:1,2017-10-02T05:30:00Z,26.1914,-97.0507,0.0,4.8671655,111.4520202,6.15,'11111222,11111222,11111222' 
TABS,ioos:station:wmo:42044:1,2017-10-02T06:00:00Z,26.1914,-97.0507,0.0,4.755649272,115.0026991,6.19,'11111222,11111222,11111222' 
TABS,ioos:station:wmo:42044:1,2017-10-02T06:30:00Z,26.1914,-97.0507,0.0,4.56676034,115.5554053,6.06,'11111222,11111222,11111222' 
TABS,ioos:station:wmo:42044:1,2017-10-02T07:00:00Z,26.1914,-97.0507,0.0,4.42471468,118.1870982,5.68,'11111222,11111222,11111222' 
TABS,ioos:station:wmo:42044:1,2017-10-02T07:30:00Z,26.1914,-97.0507,0.0,4.828674766,119.8041031,5.88,'11111222,11111222,11111222' 
TABS,ioos:station:wmo:42044:1,2017-10-02T08:00:00Z,26.1914,-97.0507,0.0,5.291927815,123.3600925,6.6,'11111222,11111222,11111222' 
TABS,ioos:station:wmo:42044:1,2017-10-02T08:30:00Z,26.1914,-97.0507,0.0,4.899081547,137.8131577,5.93,'11111222,11111222,11111222' 
TABS,ioos:station:wmo:42044:1,2017-10-02T09:00:00Z,26.1914,-97.0507,0.0,4.356145085,135.7443732,5.26,'11111222,11111222,11111222' 
TABS,ioos:station:wmo:42044:1,2017-10-02T09:30:00Z,26.1914,-97.0507,0.0,4.583841184,130.2220052,5.66,'11111222,11111222,11111222' 
TABS,ioos:station:wmo:42044:1,2017-10-02T10:00:00Z,26.1914,-97.0507,0.0,5.013990427,135.8891754,5.88,'11111222,11111222,11111222' 
TABS,ioos:station:wmo:42044:1,2017-10-02T10:30:00Z,26.1914,-97.0507,0.0,4.547361873,134.020237,5.5,'11111222,11111222,11111222' 
TABS,ioos:station:wmo:42044:1,2017-10-02T11:00:00Z,26.1914,-97.0507,0.0,4.664386348,129.8688093,5.68,'11111222,11111222,11111222' 
TABS,ioos:station:wmo:42044:1,2017-10-02T11:30:00Z,26.1914,-97.0507,0.0,3.991115132,132.7665117,5.28,'11111222,11111222,11111222' 
TABS,ioos:station:wmo:42044:1,2017-10-02T12:00:00Z,26.1914,-97.0507,0.0,4.126039263,127.1201875,5.1,'11111222,11111222,11111222' 
TABS,ioos:station:wmo:42044:1,2017-10-02T12:30:00Z,26.1914,-97.0507,0.0,4.371144015,124.0903093,5.19,'11111222,11111222,11111222' 
TABS,ioos:station:wmo:42044:1,2017-10-02T13:00:00Z,26.1914,-97.0507,0.0,4.369553753,115.9203481,5.57,'11111222,11111222,11111222' 
TABS,ioos:station:wmo:42044:1,2017-10-02T13:30:00Z,26.1914,-97.0507,0.0,3.864621586,112.5175936,5.13,'11111222,11111222,11111222' 
TABS,ioos:station:wmo:42044:1,2017-10-02T14:00:00Z,26.1914,-97.0507,0.0,3.79056724,121.845507,4.79,'11111222,11111222,11111222' 
TABS,ioos:station:wmo:42044:1,2017-10-02T14:30:00Z,26.1914,-97.0507,0.0,4.578995523,108.5936015,5.85,'11111222,11111222,11111222' 
TABS,ioos:station:wmo:42044:1,2017-10-02T15:00:00Z,26.1914,-97.0507,0.0,4.792963593,106.733976,5.93,'11111222,11111222,11111222' 
TABS,ioos:station:wmo:42044:1,2017-10-02T15:30:00Z,26.1914,-97.0507,0.0,4.781736086,111.4680222,5.92,'11111222,11111222,11111222' 
TABS,ioos:station:wmo:42044:1,2017-10-02T16:00:00Z,26.1914,-97.0507,0.0,5.031232453,108.1832418,6.65,'11111222,11111222,11111222' 
TABS,ioos:station:wmo:42044:1,2017-10-02T16:30:00Z,26.1914,-97.0507,0.0,4.683513638,108.9382465,6.17,'11111222,11111222,11111222' 
TABS,ioos:station:wmo:42044:1,2017-10-02T17:00:00Z,26.1914,-97.0507,0.0,4.719258416,112.8163542,5.85,'11111222,11111222,11111222' 
TABS,ioos:station:wmo:42044:1,2017-10-02T17:30:00Z,26.1914,-97.0507,0.0,4.606300034,116.56541,5.95,'11111222,11111222,11111222' 
TABS,ioos:station:wmo:42044:1,2017-10-02T18:00:00Z,26.1914,-97.0507,0.0,4.798603964,116.6188076,6.12,'11111222,11111222,11111222' 
TABS,ioos:station:wmo:42044:1,2017-10-02T18:30:00Z,26.1914,-97.0507,0.0,4.826945204,115.1319905,6.12,'11111222,11111222,11111222' 
TABS,ioos:station:wmo:42044:1,2017-10-02T19:00:00Z,26.1914,-97.0507,0.0,5.402314319,112.5304919,6.86,'11111222,11111222,11111222' 
TABS,ioos:station:wmo:42044:1,2017-10-02T19:30:00Z,26.1914,-97.0507,0.0,5.223887441,112.3924353,6.7,'11111222,11111222,11111222' 
TABS,ioos:station:wmo:42044:1,2017-10-02T20:00:00Z,26.1914,-97.0507,0.0,4.644620544,112.5348304,6.44,'11111222,11111222,11111222' 
TABS,ioos:station:wmo:42044:1,2017-10-02T20:30:00Z,26.1914,-97.0507,0.0,4.235304003,117.109914,5.7,'11111222,11111222,11111222' 
TABS,ioos:station:wmo:42044:1,2017-10-02T21:00:00Z,26.1914,-97.0507,0.0,4.928539337,115.9935124,6.56,'11111222,11111222,11111222' 
TABS,ioos:station:wmo:42044:1,2017-10-02T21:30:00Z,26.1914,-97.0507,0.0,4.547724706,111.5444304,5.54,'11111222,11111222,11111222' 
TABS,ioos:station:wmo:42044:1,2017-10-02T22:00:00Z,26.1914,-97.0507,0.0,4.494407636,107.3468,5.7,'11111222,11111222,11111222' 
TABS,ioos:station:wmo:42044:1,2017-10-02T22:30:00Z,26.1914,-97.0507,0.0,4.69929782,107.9726531,6.13,'11111222,11111222,11111222' 
TABS,ioos:station:wmo:42044:1,2017-10-02T23:00:00Z,26.1914,-97.0507,0.0,4.471465084,108.5163671,5.63,'11111222,11111222,11111222' 
TABS,ioos:station:wmo:42044:1,2017-10-02T23:30:00Z,26.1914,-97.0507,0.0,4.665501045,98.00893138,6.2,'11111222,11111222,11111222' 
TABS,ioos:station:wmo:42044:1,2017-10-03T00:00:00Z,26.1914,-97.0507,0.0,4.455490994,103.6311711,6.03,'11111222,11111222,11111222' 
TABS,ioos:station:wmo:42044:1,2017-10-03T00:30:00Z,26.1914,-97.0507,0.0,5.206342286,102.6485651,6.53,'11111222,11111222,11111222' 
TABS,ioos:station:wmo:42044:1,2017-10-03T01:00:00Z,26.1914,-97.0507,0.0,5.363021536,100.09502,6.61,'11111222,11111222,11111222' 
TABS,ioos:station:wmo:42044:1,2017-10-03T01:30:00Z,26.1914,-97.0507,0.0,5.399592577,98.52067287,6.57,'11111222,11111222,11111222' 
TABS,ioos:station:wmo:42044:1,2017-10-03T02:00:00Z,26.1914,-97.0507,0.0,5.589579591,101.8732134,7.08,'11111222,11111222,11111222' 
TABS,ioos:station:wmo:42044:1,2017-10-03T02:30:00Z,26.1914,-97.0507,0.0,5.079921259,105.2950728,6.66,'11111222,11111222,11111222' 
TABS,ioos:station:wmo:42044:1,2017-10-03T03:00:00Z,26.1914,-97.0507,0.0,5.277736257,103.5890184,6.58,'11111222,11111222,11111222' 
TABS,ioos:station:wmo:42044:1,2017-10-03T03:30:00Z,26.1914,-97.0507,0.0,5.859982935,101.1185752,7.35,'11111222,11111222,11111222' 
TABS,ioos:station:wmo:42044:1,2017-10-03T04:00:00Z,26.1914,-97.0507,0.0,5.870204426,100.602064,7.26,'11111222,11111222,11111222' 
TABS,ioos:station:wmo:42044:1,2017-10-03T04:30:00Z,26.1914,-97.0507,0.0,5.443537453,100.0510579,6.96,'11111222,11111222,11111222' 
TABS,ioos:station:wmo:42044:1,2017-10-03T05:00:00Z,26.1914,-97.0507,0.0,5.84213146,105.4877474,7.15,'11111222,11111222,11111222' 
TABS,ioos:station:wmo:42044:1,2017-10-03T05:30:00Z,26.1914,-97.0507,0.0,6.346061771,99.98222686,8.04,'11111222,11111222,11111222' 
TABS,ioos:station:wmo:42044:1,2017-10-03T06:00:00Z,26.1914,-97.0507,0.0,6.201161182,99.2804449,7.45,'11111222,11111222,11111222' 
TABS,ioos:station:wmo:42044:1,2017-10-03T06:30:00Z,26.1914,-97.0507,0.0,5.653467962,86.04394285,7.12,'11111222,11111222,11111222' 
TABS,ioos:station:wmo:42044:1,2017-10-03T07:00:00Z,26.1914,-97.0507,0.0,4.600043478,90.24953085,6.23,'11111222,11111222,11111222' 
TABS,ioos:station:wmo:42044:1,2017-10-03T07:30:00Z,26.1914,-97.0507,0.0,4.520099556,89.61930383,5.63,'11111222,11111222,11111222' 
TABS,ioos:station:wmo:42044:1,2017-10-03T08:00:00Z,26.1914,-97.0507,0.0,4.568818228,80.04247464,6.09,'11111222,11111222,11111222' 
TABS,ioos:station:wmo:42044:1,2017-10-03T08:30:00Z,26.1914,-97.0507,0.0,6.695169901,151.2532209,8.44,'11111222,11111222,11111222' 
TABS,ioos:station:wmo:42044:1,2017-10-03T09:00:00Z,26.1914,-97.0507,0.0,2.649169681,155.4668164,3.73,'11111222,11111222,11111222' 
TABS,ioos:station:wmo:42044:1,2017-10-03T09:30:00Z,26.1914,-97.0507,0.0,3.485426803,166.5620537,5.02,'11111222,11111222,11111222' 
TABS,ioos:station:wmo:42044:1,2017-10-03T10:00:00Z,26.1914,-97.0507,0.0,1.686564556,159.5237353,2.82,'11111222,11111222,11111222' 
TABS,ioos:station:wmo:42044:1,2017-10-03T10:30:00Z,26.1914,-97.0507,0.0,1.576102789,232.4758251,2.31,'11111222,11111222,11111222' 
TABS,ioos:station:wmo:42044:1,2017-10-03T11:00:00Z,26.1914,-97.0507,0.0,1.740028735,207.7433501,2.51,'11111222,11111222,11111222' 
TABS,ioos:station:wmo:42044:1,2017-10-03T11:30:00Z,26.1914,-97.0507,0.0,1.980908882,215.1343214,3.01,'11111222,11111222,11111222' 
TABS,ioos:station:wmo:42044:1,2017-10-03T12:00:00Z,26.1914,-97.0507,0.0,3.581340531,100.6200514,11.32,'11111222,11111222,11111222' 
TABS,ioos:station:wmo:42044:1,2017-10-03T12:30:00Z,26.1914,-97.0507,0.0,4.144514447,136.1734414,6.06,'11111222,11111222,11111222' 
TABS,ioos:station:wmo:42044:1,2017-10-03T13:00:00Z,26.1914,-97.0507,0.0,2.580096897,129.1803634,3.45,'11111222,11111222,11111222' 
TABS,ioos:station:wmo:42044:1,2017-10-03T13:30:00Z,26.1914,-97.0507,0.0,1.951435369,109.4566967,2.77,'11111222,11111222,11111222' 
TABS,ioos:station:wmo:42044:1,2017-10-03T14:00:00Z,26.1914,-97.0507,0.0,3.275667871,121.2640795,4.9,'11111222,11111222,11111222' 
TABS,ioos:station:wmo:42044:1,2017-10-03T14:30:00Z,26.1914,-97.0507,0.0,7.126184112,112.7872211,8.54,'11111222,11111222,11111222' 
TABS,ioos:station:wmo:42044:1,2017-10-03T15:00:00Z,26.1914,-97.0507,0.0,6.206971887,112.8474546,7.32,'11111222,11111222,11111222' 
TABS,ioos:station:wmo:42044:1,2017-10-03T15:30:00Z,26.1914,-97.0507,0.0,6.156524994,118.3137168,7.2,'11111222,11111222,11111222' 
TABS,ioos:station:wmo:42044:1,2017-10-03T16:00:00Z,26.1914,-97.0507,0.0,5.156752854,115.8697468,6.39,'11111222,11111222,11111222' 
TABS,ioos:station:wmo:42044:1,2017-10-03T16:30:00Z,26.1914,-97.0507,0.0,5.204997598,103.5560643,6.73,'11111222,11111222,11111222' 
TABS,ioos:station:wmo:42044:1,2017-10-03T17:00:00Z,26.1914,-97.0507,0.0,5.585499082,101.6724435,7.66,'11111222,11111222,11111222' 
TABS,ioos:station:wmo:42044:1,2017-10-03T17:30:00Z,26.1914,-97.0507,0.0,5.491812087,100.4918734,7.34,'11111222,11111222,11111222' 
TABS,ioos:station:wmo:42044:1,2017-10-03T18:00:00Z,26.1914,-97.0507,0.0,4.656457881,102.2756214,6.02,'11111222,11111222,11111222' 
TABS,ioos:station:wmo:42044:1,2017-10-03T18:30:00Z,26.1914,-97.0507,0.0,7.230885146,98.02965148,12.32,'11111222,11111222,11111222' 
TABS,ioos:station:wmo:42044:1,2017-10-03T19:00:00Z,26.1914,-97.0507,0.0,7.42041104,110.5112322,9.23,'11111222,11111222,11111222' 
TABS,ioos:station:wmo:42044:1,2017-10-03T19:30:00Z,26.1914,-97.0507,0.0,5.540333925,99.13969259,6.87,'11111222,11111222,11111222' 
TABS,ioos:station:wmo:42044:1,2017-10-03T20:00:00Z,26.1914,-97.0507,0.0,5.032305635,99.72477047,8.53,'11111222,11111222,11111222' 
TABS,ioos:station:wmo:42044:1,2017-10-03T20:30:00Z,26.1914,-97.0507,0.0,7.627640526,113.4060846,12.46,'11111222,11111222,11111222' 
TABS,ioos:station:wmo:42044:1,2017-10-03T21:00:00Z,26.1914,-97.0507,0.0,7.988516758,117.5918739,9.93,'11111222,11111222,11111222' 
TABS,ioos:station:wmo:42044:1,2017-10-03T21:30:00Z,26.1914,-97.0507,0.0,7.383887865,129.8357042,8.74,'11111222,11111222,11111222' 
TABS,ioos:station:wmo:42044:1,2017-10-03T22:00:00Z,26.1914,-97.0507,0.0,5.479507277,115.3962734,7.12,'11111222,11111222,11111222' 
TABS,ioos:station:wmo:42044:1,2017-10-03T22:30:00Z,26.1914,-97.0507,0.0,5.789369568,101.1550546,7.54,'11111222,11111222,11111222' 
TABS,ioos:station:wmo:42044:1,2017-10-03T23:00:00Z,26.1914,-97.0507,0.0,4.86214973,109.9633452,6.23,'11111222,11111222,11111222' 
TABS,ioos:station:wmo:42044:1,2017-10-03T23:30:00Z,26.1914,-97.0507,0.0,5.17818501,102.265166,6.45,'11111222,11111222,11111222' 
TABS,ioos:station:wmo:42044:1,2017-10-04T00:00:00Z,26.1914,-97.0507,0.0,5.721966445,88.49741517,6.94,'11111222,11111222,11111222' 
TABS,ioos:station:wmo:42044:1,2017-10-04T00:30:00Z,26.1914,-97.0507,0.0,6.787289592,97.45000869,8.37,'11111222,11111222,11111222' 
TABS,ioos:station:wmo:42044:1,2017-10-04T01:00:00Z,26.1914,-97.0507,0.0,6.294577031,92.18552228,7.54,'11111222,11111222,11111222' 
TABS,ioos:station:wmo:42044:1,2017-10-04T01:30:00Z,26.1914,-97.0507,0.0,5.491784774,88.53880453,6.91,'11111222,11111222,11111222' 
TABS,ioos:station:wmo:42044:1,2017-10-04T02:00:00Z,26.1914,-97.0507,0.0,7.942694757,94.33272477,9.81,'11111222,11111222,11111222' 
TABS,ioos:station:wmo:42044:1,2017-10-04T02:30:00Z,26.1914,-97.0507,0.0,7.242188896,93.32506225,8.54,'11111222,11111222,11111222' 
TABS,ioos:station:wmo:42044:1,2017-10-04T03:00:00Z,26.1914,-97.0507,0.0,7.821534376,94.25303994,9.52,'11111222,11111222,11111222' 
TABS,ioos:station:wmo:42044:1,2017-10-04T03:30:00Z,26.1914,-97.0507,0.0,8.385016398,91.98241483,9.5,'11111222,11111222,11111222' 
TABS,ioos:station:wmo:42044:1,2017-10-04T04:00:00Z,26.1914,-97.0507,0.0,6.999264247,87.05133526,9.08,'11111222,11111222,11111222' 
TABS,ioos:station:wmo:42044:1,2017-10-04T04:30:00Z,26.1914,-97.0507,0.0,8.020897705,90.8576484,9.4,'11111222,11111222,11111222' 
TABS,ioos:station:wmo:42044:1,2017-10-04T05:00:00Z,26.1914,-97.0507,0.0,7.900227845,90.43556935,9.85,'11111222,11111222,11111222' 
TABS,ioos:station:wmo:42044:1,2017-10-04T05:30:00Z,26.1914,-97.0507,0.0,7.94,90.00042092,9.61,'11111222,11111222,11111222' 
TABS,ioos:station:wmo:42044:1,2017-10-04T06:00:00Z,26.1914,-97.0507,0.0,8.190879074,89.16014251,9.9,'11111222,11111222,11111222' 
TABS,ioos:station:wmo:42044:1,2017-10-04T06:30:00Z,26.1914,-97.0507,0.0,7.962166791,93.16826876,9.74,'11111222,11111222,11111222' 
TABS,ioos:station:wmo:42044:1,2017-10-04T07:00:00Z,26.1914,-97.0507,0.0,7.424890572,93.62969593,8.92,'11111222,11111222,11111222' 
TABS,ioos:station:wmo:42044:1,2017-10-04T07:30:00Z,26.1914,-97.0507,0.0,7.553813606,91.82112635,9.4,'11111222,11111222,11111222' 
TABS,ioos:station:wmo:42044:1,2017-10-04T08:00:00Z,26.1914,-97.0507,0.0,7.428492445,95.02026282,9.08,'11111222,11111222,11111222' 
TABS,ioos:station:wmo:42044:1,2017-10-04T08:30:00Z,26.1914,-97.0507,0.0,6.786574983,95.07254193,8.53,'11111222,11111222,11111222' 
TABS,ioos:station:wmo:42044:1,2017-10-04T09:00:00Z,26.1914,-97.0507,0.0,7.050028369,95.29048975,8.65,'11111222,11111222,11111222' 
TABS,ioos:station:wmo:42044:1,2017-10-04T09:30:00Z,26.1914,-97.0507,0.0,6.924333903,94.80528124,8.77,'11111222,11111222,11111222' 
TABS,ioos:station:wmo:42044:1,2017-10-04T10:00:00Z,26.1914,-97.0507,0.0,5.976286472,110.9828173,7.54,'11111222,11111222,11111222' 
TABS,ioos:station:wmo:42044:1,2017-10-04T10:30:00Z,26.1914,-97.0507,0.0,7.555904976,86.2813505,10.35,'11111222,11111222,11111222' 
TABS,ioos:station:wmo:42044:1,2017-10-04T11:00:00Z,26.1914,-97.0507,0.0,9.671881926,82.09569466,12.85,'11111222,11111222,11111222' 
TABS,ioos:station:wmo:42044:1,2017-10-04T11:30:00Z,26.1914,-97.0507,0.0,9.114000219,91.6980386,11.58,'11111222,11111222,11111222' 
TABS,ioos:station:wmo:42044:1,2017-10-04T12:00:00Z,26.1914,-97.0507,0.0,9.046352856,94.37482788,10.64,'11111222,11111222,11111222' 
TABS,ioos:station:wmo:42044:1,2017-10-04T12:30:00Z,26.1914,-97.0507,0.0,8.280247581,97.98371813,11.27,'11111222,11111222,11111222' 
TABS,ioos:station:wmo:42044:1,2017-10-04T13:00:00Z,26.1914,-97.0507,0.0,7.823094017,96.01707984,9.54,'11111222,11111222,11111222' 
TABS,ioos:station:wmo:42044:1,2017-10-04T13:30:00Z,26.1914,-97.0507,0.0,6.524791184,92.19626413,8.32,'11111222,11111222,11111222' 
TABS,ioos:station:wmo:42044:1,2017-10-04T14:00:00Z,26.1914,-97.0507,0.0,6.112650816,88.31214305,7.57,'11111222,11111222,11111222' 
TABS,ioos:station:wmo:42044:1,2017-10-04T14:30:00Z,26.1914,-97.0507,0.0,6.343886821,85.02593794,7.49,'11111222,11111222,11111222' 
TABS,ioos:station:wmo:42044:1,2017-10-04T15:00:00Z,26.1914,-97.0507,0.0,6.876118091,87.58242063,8.22,'11111222,11111222,11111222' 
TABS,ioos:station:wmo:42044:1,2017-10-04T15:30:00Z,26.1914,-97.0507,0.0,6.054717169,77.01917828,7.28,'11111222,11111222,11111222' 
TABS,ioos:station:wmo:42044:1,2017-10-04T16:00:00Z,26.1914,-97.0507,0.0,6.100573744,84.26096359,7.2,'11111222,11111222,11111222' 
TABS,ioos:station:wmo:42044:1,2017-10-04T16:30:00Z,26.1914,-97.0507,0.0,6.127332209,77.84607215,7.33,'11111222,11111222,11111222' 
TABS,ioos:station:wmo:42044:1,2017-10-04T17:00:00Z,26.1914,-97.0507,0.0,6.302539171,68.40079715,7.55,'11111222,11111222,11111222' 
TABS,ioos:station:wmo:42044:1,2017-10-04T17:30:00Z,26.1914,-97.0507,0.0,5.991276992,73.01641699,7.3,'11111222,11111222,11111222' 
TABS,ioos:station:wmo:42044:1,2017-10-04T18:00:00Z,26.1914,-97.0507,0.0,6.414639507,64.71294178,7.54,'11111222,11111222,11111222' 
TABS,ioos:station:wmo:42044:1,2017-10-04T18:30:00Z,26.1914,-97.0507,0.0,7.30525838,68.13996371,8.63,'11111222,11111222,11111222' 